Location: Jusix
(44.5414°N, 0.0497°E)
Time: 06:28:09
(UTC+00:00)

Daily predictions for brighter satellites

Satellite Brightness Start Highest point End
(mag) Time Altitude Azimuth Time Altitude Azimuth Time Altitude Azimuth
Cosmos 1689 Rocket 3.4 16:52:17 10° N 16:55:11 42° WNW 16:58:06 10° SW
PSLV R/B 4.0 16:55:23 10° NNE 16:59:37 68° ESE 17:03:47 10° S
NOSS 2-3 (C) 4.0 16:56:56 10° SSW 17:01:06 49° ESE 17:05:53 10° NE
CZ-4 R/B 3.1 17:00:42 10° E 17:02:51 14° ENE 17:04:58 10° NNE
Cosmos 724 4.5 16:57:56 10° NNW 17:03:38 50° NE 17:09:15 10° SE
ATLAS 3B R/B 4.4 17:02:52 10° NNW 17:06:19 14° N 17:09:46 10° NE
CORIOLIS 4.3 17:03:42 10° SE 17:08:57 53° ENE 17:14:14 10° N
Lacrosse 4 Rocket 1.4 17:05:48 10° SSW 17:09:53 85° WNW 17:13:57 10° NNE
Cosmos 1805 Rocket 3.6 17:07:02 10° N 17:11:26 87° W 17:15:49 10° S
Cosmos 1633 2.6 17:13:01 10° N 17:16:38 59° E 17:20:12 10° SSE
Cosmos 1862 3.5 17:13:12 10° N 17:17:04 48° ENE 17:20:56 10° SSE
NOAA 12 4.3 17:17:21 10° SE 17:22:30 52° ENE 17:27:39 10° N
Meteor 2-20 Rocket 4.4 17:16:51 10° S 17:22:57 82° E 17:29:08 10° N
Cosmos 1980 Rocket 2.6 17:17:42 10° S 17:23:01 43° ESE 17:28:23 10° NE
Cosmos 2112 Rocket 4.2 17:18:50 10° S 17:23:52 53° ESE 17:28:58 10° NNE
SL-16 R/B 3.8 17:21:33 10° ESE 17:24:03 13° E 17:25:11 12° E
Cosmos 2034 Rocket 4.2 17:21:44 10° N 17:27:59 54° ENE 17:34:12 10° SSE
APEX 3.2 17:25:11 10° S 17:28:26 40° ESE 17:30:28 16° NE
BREEZE-M DEB (TANK) 3.3 17:22:13 10° SW 17:29:11 49° SSE 17:31:38 16° E
Cosmos 1680 Rocket 3.5 17:24:07 10° S 17:29:18 70° ESE 17:34:32 10° NNE
GEOS 3 Rocket 4.1 17:25:08 11° NE 17:29:59 44° ESE 17:35:00 10° SSW
Cosmos 2297 Rocket 3.6 17:24:58 10° NW 17:30:18 43° WSW 17:35:35 10° S
Okean-O 2.6 17:26:12 10° SSE 17:30:32 58° ENE 17:34:55 10° N
Cosmos 2322 Rocket 3.9 17:28:22 10° ESE 17:30:35 12° E 17:30:44 12° E
Cosmos 2227 Rocket 3.4 17:25:45 10° NW 17:31:08 46° WSW 17:36:29 10° S
Cosmos 1633 Rocket 3.0 17:32:40 10° N 17:37:06 76° E 17:41:31 10° SSE
Cosmos 1151 Rocket 3.2 17:33:16 10° SSE 17:37:29 49° E 17:41:43 10° NNE
Sich 1 3.7 17:36:52 10° NNW 17:41:11 58° W 17:45:29 10° S
Cosmos 2263 Rocket 2.8 17:40:18 10° N 17:45:17 32° NE 17:49:12 15° ESE
H-2A R/B 3.3 17:42:46 10° S 17:46:33 60° W 17:50:19 10° NNW
Cosmos 1328 Rocket 3.4 17:45:56 10° S 17:50:20 75° E 17:54:44 10° NNE
Cosmos 2228 Rocket 3.9 17:46:35 10° SSE 17:50:28 30° E 17:52:40 20° NE
USA 215 4.2 17:48:56 18° ENE 17:52:50 31° N 17:58:24 10° NW
Cosmos 1666 Rocket 4.1 17:48:54 10° NNW 17:53:12 59° W 17:57:26 10° S
Cosmos 1933 Rocket 3.7 17:50:03 10° N 17:54:14 45° ENE 17:58:25 10° SSE
BREEZE-M DEB (TANK) 2.8 17:51:58 10° WNW 17:54:47 31° N 17:55:04 30° NNE
Cosmos 1400 Rocket 4.5 17:52:26 10° SE 17:54:08 18° ESE 17:54:08 18° ESE
Cosmos 1515 Rocket 3.6 17:51:43 10° S 17:55:58 52° E 18:00:14 10° NNE
Tsikada Rocket 4.1 17:50:03 10° S 17:56:17 60° E 18:02:35 10° NNE
Cosmos 2369 4.3 17:51:05 10° SW 17:56:38 56° WNW 18:02:16 10° NNE
ERBS 4.4 17:54:14 10° WNW 17:56:41 19° NNW 17:58:20 14° NNE
COSMO-SKYMED 1 2.6 17:52:56 10° NNE 17:57:13 55° E 18:01:29 10° S
YAOGAN 6 2.5 17:54:08 10° SSE 17:57:31 53° ENE 18:00:57 10° N
SL-8 R/B 4.1 17:55:39 10° SW 18:00:19 51° SSE 18:02:24 30° E
Cosmos 1697 Rocket 3.3 17:54:49 10° SW 18:00:21 56° WNW 18:05:56 10° NNE
Cosmos 1624 Rocket 3.9 17:55:18 10° NNW 18:00:41 77° ENE 18:06:00 10° SSE
Cosmos 2056 Rocket 3.3 17:56:46 10° NNW 18:01:57 76° ENE 18:07:08 10° SSE
SeaSat 1 2.3 17:58:47 10° SE 18:03:40 69° ENE 18:08:36 10° NNW
NOSS 2-3 (E) 4.5 17:59:48 10° WSW 18:04:06 51° NW 18:08:11 15° NNE
BREEZE-M R/B 4.1 18:08:01 10° SSW 18:12:22 25° SSE 18:12:47 25° SE
FengYun 1-2 T 4.1 18:07:00 10° SSE 18:12:31 86° ENE 18:18:02 10° NNW
NOSS 3-1 (A) 4.4 18:07:33 10° WSW 18:12:54 41° NW 18:18:27 13° NNE
Cosmos 2278 4.4 18:08:42 10° SW 18:14:16 55° WNW 18:19:53 10° NNE
COSMOS 2455 3.9 18:10:50 10° SSE 18:14:51 24° ESE 18:14:51 24° ESE
GENESIS II 4.2 18:13:23 10° SSW 18:17:24 73° ESE 18:18:20 50° NE
YAOGAN 1 2.4 18:15:43 10° SSE 18:20:00 69° ENE 18:24:20 10° N
Cosmos 1470 Rocket 4.1 18:20:12 10° NNW 18:24:39 62° W 18:29:02 10° S
Envisat 3.7 18:20:04 10° S 18:25:01 55° W 18:30:02 10° NNW
Cosmos 1844 Rocket 4.5 18:23:04 10° N 18:24:56 15° NNE 18:24:56 15° NNE
Cosmos 2227 4.2 18:30:01 10° NNW 18:35:49 83° WSW 18:41:33 10° SSE
CENTAUR R/B 3.9 18:30:02 10° NNW 18:36:41 30° NNE 18:37:53 29° NE
CZ-4 R/B 2.0 18:33:22 10° S 18:37:26 58° W 18:41:26 10° NNW
CSL-04 Debris 4.2 18:32:28 10° SSE 18:37:59 83° WSW 18:43:30 10° NNW
NOAA 11 4.0 18:33:46 10° SSE 18:39:09 72° ENE 18:44:35 10° N
Cosmos 1420 Rocket 3.8 18:36:54 10° NNW 18:42:07 80° ENE 18:43:51 43° SSE
Cosmos 1606 3.2 18:41:45 10° SSW 18:45:27 58° W 18:45:44 56° WNW
Meteor 1-26 Rocket 4.2 18:40:11 10° S 18:46:10 83° E 18:51:17 14° NNE
CSL-04 Rocket 3.9 18:43:31 10° S 18:48:50 68° WSW 18:54:07 10° NNW
Lacrosse 4 Rocket 4.1 18:47:34 10° WNW 18:49:13 12° NW 18:50:52 10° NNW
Cosmos 1452 Rocket 3.3 18:45:07 10° NNW 18:50:26 75° ENE 18:50:33 75° E
Centaur D-1A AC-31 3.8 18:50:38 10° S 18:51:42 12° SSE 18:51:42 12° SSE
ATLAS 2AS CENTAUR R/B 4.2 18:48:31 10° SSE 18:52:05 23° SE 18:52:05 23° SE
ATLAS 3B R/B 3.9 18:54:03 10° NNW 18:58:36 25° NNE 18:58:36 25° NNE
USA 238 DEB 3.8 18:54:07 10° NNW 19:01:11 56° NE 19:01:31 56° ENE
Cosmos 2360 Rocket 4.4 18:56:09 10° S 18:56:32 12° SSE 18:56:32 12° SSE
USA 238 3.9 18:54:13 10° NNW 19:01:17 56° NE 19:01:36 56° NE
NOSS 3-2 (A) 4.1 18:57:21 10° NNW 19:04:38 55° NE 19:05:08 55° ENE
ISS -0.7 19:01:57 10° SW 19:02:08 11° SSW 19:02:08 11° SSW
Cosmos 1980 Rocket 3.7 19:02:05 10° WSW 19:07:08 32° NW 19:10:55 16° N
SL-16 R/B 2.1 19:01:36 10° SSW 19:07:07 85° SSW 19:07:07 85° SSW
Ariane Rocket 3.9 19:09:55 38° NNW 19:09:55 38° NNW 19:13:01 10° NNW
Cosmos 2322 Rocket 2.4 19:08:06 10° SSW 19:12:37 59° SSW 19:12:37 59° SSW
Cosmos 2263 Rocket 3.2 19:24:06 10° NW 19:29:19 42° WSW 19:31:01 33° SSW
USA 215 3.8 19:36:17 48° N 19:36:17 48° N 19:41:23 10° NW
NOSS 3-2 (C) 4.4 19:43:46 10° NW 19:49:12 51° N 19:49:12 51° N
COSMOS 2455 4.3 19:55:07 10° SW 19:58:04 30° SW 19:58:04 30° SW
CENTAUR R/B 4.0 20:20:32 10° NW 20:25:05 40° NNW 20:25:05 40° NNW
